Weather History for PAVD - August, 2013

Change the Weather History Date:

Saturday, August 31, 2013

  Actual Average Record
Temperature  
Mean Temperature 50 °F -  
Max Temperature 53 °F 57 °F 71 °F (1968)
Min Temperature 46 °F 44 °F 39 °F (1990)
Degree Days  
Heating Degree Days 16    
Moisture  
Dew Point 47 °F    
Average Humidity 90    
Maximum Humidity 100    
Minimum Humidity 82    
Precipitation  
Precipitation 0.16 in - - ()
Sea Level Pressure  
Sea Level Pressure 29.92 in    
Wind  
Wind Speed 2 mph (ESE)    
Max Wind Speed 5 mph    
Max Gust Speed -    
Visibility 7 miles    
Events Rain    
Averages and records for this station are not official NWS values.
T = Trace of Precipitation, MM = Missing Value Source: NWS Daily Summary

Daily Weather History Graph

Daily Weather History Graph

Search for Another Location

Airport or City:

Trip Planner

Search our weather history database for the weather conditions in past years. The results will help you decide how hot, cold, wet, or windy it might be!

Date:

Astronomy

Aug. 31, 2013 Rise Set
Actual Time 6:35 AM AKDT 8:53 PM AKDT
Civil Twilight 5:48 AM AKDT 9:39 PM AKDT
Nautical Twilight 4:45 AM AKDT 10:41 PM AKDT
Astronomical Twilight 3:18 AM AKDT 12:05 AM AKDT
Moon 1:21 AM AKDT (8/31) 6:40 PM AKDT (8/31)
Length of Visible Light 15h 51m
Length of Day
14h 17m
Waning Crescent, 20% of the Moon is Illuminated
Aug 31
Waning Crescent
Sep 5
New
Sep 12
First Quarter
Sep 19
Full
Sep 26
Last Quarter

Hourly Weather History & Observations

Time (AKDT) Temp. Windchill Dew Point Humidity Pressure Visibility Wind Dir Wind Speed Gust Speed Precip Events Conditions
12:16 AM 48.2 °F - 44.6 °F 87% 29.97 in 10.0 mi ENE 4.6 mph - N/A   Overcast
12:36 AM 48.2 °F - 42.8 °F 82% 29.97 in 10.0 mi East 3.5 mph - N/A   Overcast
12:56 AM 48.2 °F - 42.8 °F 82% 29.97 in 10.0 mi Calm Calm - N/A   Overcast
1:16 AM 48.2 °F - 44.6 °F 87% 29.98 in 10.0 mi East 4.6 mph - N/A   Overcast
1:36 AM 48.2 °F - 46.4 °F 93% 29.97 in 10.0 mi Calm Calm - N/A   Overcast
1:56 AM 48.2 °F - 46.4 °F 93% 29.97 in 10.0 mi East 4.6 mph - N/A   Overcast
2:16 AM 46.4 °F 45.2 °F 44.6 °F 93% 29.97 in 10.0 mi East 3.5 mph - N/A   Overcast
2:36 AM 46.4 °F - 42.8 °F 87% 29.97 in 10.0 mi Calm Calm - N/A   Overcast
2:56 AM 48.2 °F - 44.6 °F 87% 29.97 in 10.0 mi ENE 4.6 mph - N/A   Overcast
3:16 AM 48.2 °F - 44.6 °F 87% 29.97 in 10.0 mi Calm Calm - N/A   Overcast
3:36 AM 48.2 °F - 46.4 °F 93% 29.96 in 10.0 mi Calm Calm - N/A   Overcast
3:56 AM 48.2 °F - 48.2 °F 100% 29.96 in 10.0 mi Calm Calm - N/A   Overcast
4:16 AM 48.2 °F - 44.6 °F 87% 29.96 in 10.0 mi East 4.6 mph - 0.01 in   Overcast
4:36 AM 48.2 °F - 44.6 °F 87% 29.96 in 10.0 mi Calm Calm - 0.01 in   Overcast
4:56 AM 48.2 °F - 44.6 °F 87% 29.96 in 10.0 mi East 4.6 mph - 0.01 in   Overcast
5:16 AM 48.2 °F - 42.8 °F 82% 29.96 in 10.0 mi Calm Calm - N/A   Overcast
5:36 AM 48.2 °F - 46.4 °F 93% 29.96 in 8.0 mi Calm Calm - 0.02 in   Overcast
5:56 AM 46.4 °F - 44.6 °F 93% 29.96 in 10.0 mi Calm Calm - 0.03 in   Overcast
6:16 AM 48.2 °F - 46.4 °F 93% 29.96 in 7.0 mi SSE 3.5 mph - N/A   Overcast
6:36 AM 46.4 °F 45.2 °F 44.6 °F 93% 29.96 in 7.0 mi East 3.5 mph - N/A   Overcast
6:56 AM 48.2 °F - 46.4 °F 93% 29.96 in 10.0 mi Calm Calm - N/A   Overcast
7:16 AM 48.2 °F - 46.4 °F 93% 29.96 in 10.0 mi Calm Calm - N/A   Overcast
7:36 AM 48.2 °F - 46.4 °F 93% 29.95 in 10.0 mi Calm Calm - 0.02 in   Overcast
7:56 AM 48.2 °F - 44.6 °F 87% 29.95 in 10.0 mi East 3.5 mph - 0.02 in   Overcast
8:16 AM 48.2 °F - 46.4 °F 93% 29.95 in 10.0 mi Calm Calm - N/A   Overcast
8:36 AM 48.2 °F - 46.4 °F 93% 29.95 in 10.0 mi Calm Calm - N/A   Overcast
8:56 AM 48.2 °F - 44.6 °F 87% 29.95 in 3.0 mi Calm Calm - N/A   Overcast
9:15 AM 48.2 °F - 46.4 °F 93% 29.96 in 5.0 mi Calm Calm - N/A Rain Light Rain
9:16 AM 48.2 °F - 46.4 °F 93% 29.96 in 5.0 mi Calm Calm - N/A   Overcast
9:36 AM 48.2 °F - 46.4 °F 93% 29.96 in 5.0 mi Calm Calm - N/A   Overcast
9:56 AM 48.2 °F - 46.4 °F 93% 29.95 in 5.0 mi Calm Calm - 0.01 in   Overcast
10:16 AM 48.2 °F - 46.4 °F 93% 29.95 in 5.0 mi Calm Calm - N/A   Overcast
10:36 AM 48.2 °F - 46.4 °F 93% 29.95 in 5.0 mi ESE 3.5 mph - N/A   Overcast
10:56 AM 50.0 °F - 46.4 °F 87% 29.95 in 6.0 mi Calm Calm - N/A   Overcast
11:16 AM 50.0 °F - 48.2 °F 94% 29.95 in 6.0 mi Calm Calm - N/A   Overcast
11:36 AM 48.2 °F - 46.4 °F 93% 29.94 in 6.0 mi Calm Calm - N/A   Overcast
11:56 AM 50.0 °F - 46.4 °F 87% 29.94 in 10.0 mi Calm Calm - N/A   Overcast
12:16 PM 51.8 °F - 48.2 °F 88% 29.94 in 10.0 mi Calm Calm - N/A   Overcast
12:36 PM 51.8 °F - 48.2 °F 88% 29.94 in 10.0 mi Calm Calm - N/A   Overcast
12:56 PM 51.8 °F - 48.2 °F 88% 29.94 in 7.0 mi Calm Calm - N/A   Overcast
1:16 PM 51.8 °F - 48.2 °F 88% 29.93 in 7.0 mi Calm Calm - N/A   Overcast
1:36 PM 51.8 °F - 48.2 °F 88% 29.93 in 7.0 mi West 3.5 mph - N/A   Overcast
1:56 PM 51.8 °F - 48.2 °F 88% 29.93 in 10.0 mi WSW 3.5 mph - N/A   Overcast
2:16 PM 51.8 °F - 48.2 °F 88% 29.92 in 10.0 mi SW 4.6 mph - N/A   Overcast
2:36 PM 51.8 °F - 48.2 °F 88% 29.92 in 10.0 mi West 4.6 mph - N/A   Overcast
2:56 PM 51.8 °F - 48.2 °F 88% 29.92 in 10.0 mi Calm Calm - N/A   Overcast
3:16 PM 51.8 °F - 48.2 °F 88% 29.91 in 10.0 mi Calm Calm - N/A   Overcast
3:36 PM 51.8 °F - 50.0 °F 94% 29.92 in 10.0 mi Calm Calm - N/A   Overcast
3:56 PM 51.8 °F - 48.2 °F 88% 29.91 in 10.0 mi Calm Calm - 0.01 in   Overcast
4:16 PM 53.6 °F - 50.0 °F 88% 29.91 in 10.0 mi Calm Calm - 0.01 in   Overcast
4:36 PM 51.8 °F - 50.0 °F 94% 29.90 in 10.0 mi Calm Calm - 0.01 in   Overcast
4:56 PM 53.6 °F - 50.0 °F 88% 29.89 in 7.0 mi Calm Calm - 0.01 in   Overcast
5:16 PM 53.6 °F - 50.0 °F 88% 29.89 in 7.0 mi Calm Calm - N/A   Overcast
5:36 PM 53.6 °F - 50.0 °F 88% 29.88 in 7.0 mi East 3.5 mph - N/A   Overcast
5:56 PM 53.6 °F - 50.0 °F 88% 29.88 in 5.0 mi Calm Calm - 0.01 in   Overcast
6:16 PM 53.6 °F - 50.0 °F 88% 29.88 in 5.0 mi Calm Calm - 0.01 in   Overcast
6:36 PM 51.8 °F - 48.2 °F 88% 29.87 in 5.0 mi Calm Calm - 0.01 in   Overcast
6:56 PM 51.8 °F - 50.0 °F 94% 29.87 in 10.0 mi Calm Calm - 0.01 in   Overcast
7:11 PM 51.8 °F - 50.0 °F 94% 29.87 in 1.5 mi SW 3.5 mph - N/A Rain Light Rain
7:16 PM 51.8 °F - 50.0 °F 94% 29.87 in 1.5 mi West 3.5 mph - N/A   Overcast
7:36 PM 51.8 °F - 48.2 °F 88% 29.87 in 1.5 mi SW 3.5 mph - N/A   Overcast
7:56 PM 51.8 °F - 48.2 °F 88% 29.87 in 1.0 mi WSW 4.6 mph - N/A   Overcast
8:16 PM 50.0 °F - 46.4 °F 87% 29.87 in 1.0 mi Calm Calm - N/A   Overcast
8:36 PM 51.8 °F - 48.2 °F 88% 29.87 in 1.0 mi Calm Calm - 0.02 in   Overcast
8:56 PM 50.0 °F - 48.2 °F 94% 29.87 in 0.8 mi East 4.6 mph - 0.03 in   Overcast
9:16 PM 50.0 °F - 48.2 °F 94% 29.87 in 0.8 mi Calm Calm - 0.01 in   Overcast
9:36 PM 50.0 °F - 48.2 °F 94% 29.87 in 0.8 mi Calm Calm - 0.01 in   Overcast
9:56 PM 48.2 °F - 46.4 °F 93% 29.87 in 4.0 mi East 4.6 mph - 0.02 in   Overcast
10:16 PM 48.2 °F - 46.4 °F 93% 29.86 in 7.0 mi East 3.5 mph - N/A   Overcast
10:36 PM 48.2 °F - 46.4 °F 93% 29.86 in 10.0 mi East 3.5 mph - N/A   Overcast
10:56 PM 48.2 °F - 46.4 °F 93% 29.86 in 10.0 mi Calm Calm - N/A   Overcast
11:16 PM 48.2 °F - 46.4 °F 93% 29.86 in 10.0 mi East 3.5 mph - N/A   Overcast
11:36 PM 48.2 °F - 46.4 °F 93% 29.86 in 6.0 mi Calm Calm - N/A   Overcast
11:56 PM 48.2 °F - 46.4 °F 93% 29.86 in 3.0 mi Calm Calm - N/A   Overcast